Temperature
23 21 21 21 21 22 23 23 22 22 21 19 17 17 17 16 16 16 15 15 15 15 16 17 17 18 18 18 18 18 17 18 17 17 17 16 16 16 16 17 17 17 17 17
21 22 23 23 22 22 22 22 22 22 21 19 17 17 17 16 15 15 14 14 15 15 16 17 17 17 17 18 17 17 17 17 17 16 16 16 16 16 16 16 17 17 17 17
23 23 24 24 24 24 23 23 23 22 21 19 19 18 16 16 16 15 14 15 15 15 16 16 16 17 17 17 17 17 17 16 16 16 16 16 16 16 16 16 17 17 17 17
23 24 24 24 24 25 24 24 24 23 21 19 19 18 17 16 15 15 14 14 15 15 15 16 16 16 17 17 16 16 16 16 16 16 16 16 16 16 16 16 16 17 17 17
23 24 24 24 25 25 24 22 22 21 20 18 18 17 17 16 16 15 14 14 14 15 15 15 15 16 16 16 16 16 16 16 16 16 16 15 15 15 15 15 16 16 16 16
23 23 23 24 24 24 23 21 19 17 17 18 18 18 17 16 16 15 15 14 15 15 15 15 16 16 16 16 16 16 16 16 16 16 15 15 15 15 15 15 15 15 15 15
22 23 23 23 24 23 21 20 19 19 17 18 17 17 17 16 16 15 15 15 15 15 15 15 16 16 16 16 16 16 16 16 15 15 15 15 15 15 14 14 14 14 14 14
22 21 23 23 23 23 21 20 19 19 18 17 17 17 16 16 16 16 15 15 15 15 15 16 16 16 16 16 16 16 15 15 15 15 14 14 14 14 14 13 13 13 13 13
21 22 23 23 22 22 22 18 18 16 17 17 17 17 16 15 15 15 15 15 15 15 15 15 16 16 15 15 15 15 15 15 14 14 14 14 13 13 13 13 12 12 12 12
21 21 22 22 22 21 20 17 16 16 17 18 18 17 16 16 15 14 14 15 15 15 15 15 15 15 15 15 15 14 14 14 14 14 13 13 13 13 12 12 12 11 11 11
21 20 20 20 20 20 20 19 15 14 16 17 17 17 16 15 14 14 14 15 15 15 15 15 15 15 15 14 14 14 14 13 13 13 13 13 12 12 12 11 11 11 11 10
19 17 18 19 20 20 20 19 17 17 16 15 15 15 15 14 14 14 15 15 15 15 15 15 15 14 14 14 13 13 13 13 13 13 12 12 12 12 11 11 11 11 10 10
18 17 17 18 18 18 18 18 16 14 14 14 15 16 15 14 14 15 15 15 15 15 15 15 14 14 14 13 13 13 13 13 12 12 12 12 12 11 11 11 11 11 10 10
18 16 17 19 18 18 18 18 17 15 15 15 16 16 14 14 13 14 15 15 15 15 14 14 14 13 13 13 13 12 12 12 12 12 12 11 11 11 11 11 11 11 10 10
17 17 18 18 18 18 18 18 17 17 16 16 16 15 14 13 13 14 15 15 14 14 14 13 13 12 12 12 12 12 11 11 11 11 11 11 11 11 11 11 11 10 10 10
16 17 18 18 18 18 17 17 17 17 16 16 15 14 13 14 14 14 14 14 13 13 13 12 12 11 11 11 11 10 10 10 10 10 10 10 10 10 10 10 10 10 10 10
15 16 17 17 17 17 17 17 17 16 16 15 14 14 13 12 12 13 14 13 13 12 12 11 11 10 10 10 9 9 9 9 9 9 9 9 9 9 9 9 9 9 9 9
15 14 13 15 17 18 16 17 17 16 15 14 14 13 13 13 13 13 13 13 12 11 11 10 10 9 9 9 9 8 8 8 8 7 8 8 8 8 8 8 8 9 9 9
14 15 14 14 16 17 17 17 16 15 14 14 13 12 13 13 12 12 13 12 11 10 10 9 9 8 8 8 7 7 7 7 7 7 6 6 6 6 7 7 7 7 8 8
14 14 14 14 17 17 17 17 17 15 14 14 13 12 12 11 8 10 12 11 10 10 9 8 8 8 7 7 7 6 6 6 6 6 5 5 6 6 6 6 6 6 7 7
16 14 14 15 16 15 16 16 16 15 14 14 14 13 12 10 10 11 11 10 9 9 8 8 7 7 7 6 6 5 5 5 5 5 5 5 5 5 5 5 5 5 6 6
16 15 14 13 15 16 16 15 14 14 15 14 14 13 12 12 11 11 10 9 8 8 7 7 6 6 6 6 5 5 5 5 5 5 5 5 5 5 5 5 5 5 5 5
14 14 13 14 14 15 16 16 16 15 15 14 13 13 12 11 10 10 9 8 8 7 7 6 6 6 6 5 5 5 5 5 5 4 4 4 4 4 4 4 5 5 5 5
15 12 12 13 13 15 16 16 15 15 14 13 13 12 11 10 9 9 8 8 7 7 6 6 5 5 5 5 5 5 5 5 4 4 4 4 4 4 4 4 4 4 4 5
15 13 13 14 14 15 15 15 15 14 14 13 12 11 10 9 9 8 7 7 7 6 6 5 5 5 5 5 5 5 5 5 4 4 4 4 4 4 4 4 4 4 4 4
13 13 14 14 16 14 16 16 15 14 13 12 12 11 10 9 8 8 7 7 6 6 5 5 5 5 5 5 5 5 5 4 4 4 4 4 4 4 4 4 4 4 4 4
Wind_Speed
3 3 3 7 8 6 2 2 3 1 2 8 11 11 12 12 13 14 12 11 11 10 8 8 9 8 8 7 6 6 4 3 2 1 1 0 2 2 2 3 5 7 7 6
5 4 7 5 4 4 3 1 0 2 5 6 8 10 9 11 11 10 10 10 9 8 8 8 9 9 8 7 7 7 6 6 5 2 1 1 1 1 2 2 3 5 5 5
4 6 4 1 0 2 2 4 4 4 3 4 5 5 5 5 8 9 10 8 8 8 8 8 8 8 7 8 7 6 6 6 6 5 2 1 1 1 1 2 2 3 4 4
4 4 3 2 1 3 2 3 3 4 4 1 2 1 2 2 5 7 8 7 7 7 7 6 6 6 6 5 5 5 5 5 5 5 4 4 2 2 2 3 2 3 2 1
5 4 3 3 3 1 2 3 4 3 4 4 5 3 3 0 1 2 3 3 4 5 4 4 4 4 4 3 4 3 4 5 5 6 5 5 4 2 2 3 4 3 3 3
5 3 2 3 3 1 3 6 6 6 5 3 3 1 3 3 3 3 2 0 1 2 2 2 2 2 2 3 2 2 4 4 4 5 5 5 4 3 3 4 4 3 3 3
8 6 4 2 3 5 6 6 5 6 5 3 2 1 5 2 3 4 4 3 2 2 3 3 3 3 3 2 2 1 1 1 1 2 3 3 3 3 2 1 2 2 2 2
4 7 6 4 1 1 2 6 6 4 4 4 3 3 4 2 3 3 2 2 3 4 5 6 6 6 6 6 4 3 3 2 2 2 2 2 2 2 1 1 1 1 1 2
2 5 5 4 3 2 3 4 4 6 2 1 4 4 4 2 1 2 2 2 5 6 7 7 8 8 8 8 7 6 6 6 6 5 5 5 4 4 4 4 3 2 3 3
4 4 6 5 6 7 5 7 5 4 3 2 4 4 4 3 4 3 4 5 6 6 7 8 8 8 7 7 8 7 8 8 8 7 7 6 6 6 6 5 5 5 5 4
3 1 6 6 6 6 6 5 6 4 4 3 3 5 2 4 3 3 4 4 6 7 8 8 8 7 7 7 8 8 9 9 9 9 8 8 8 7 6 6 8 7 6 6
3 4 2 4 3 2 3 3 4 3 1 2 2 5 4 3 2 0 2 3 5 6 7 8 8 8 8 8 9 9 10 10 11 10 9 10 9 8 8 9 9 8 8 8
5 5 4 7 7 7 6 4 4 5 4 3 1 5 2 4 4 3 3 5 6 7 8 7 7 7 8 9 10 10 10 11 12 11 11 11 11 11 11 12 11 9 9 9
5 5 4 3 5 2 3 5 3 4 3 1 4 7 4 4 4 5 6 7 8 8 8 8 8 9 10 10 10 11 11 11 11 11 11 12 13 13 13 12 11 11 10 10
5 5 2 0 1 3 3 4 4 4 2 3 6 6 6 4 5 6 7 9 10 10 10 10 10 10 10 11 11 11 11 12 11 11 11 13 13 13 12 12 12 11 11 11
4 5 3 3 4 5 4 5 3 2 1 3 4 6 5 5 5 7 9 10 11 11 11 11 11 11 11 11 12 12 12 12 11 11 12 13 12 12 12 12 12 11 11 11
3 5 3 2 2 3 2 2 1 3 4 5 6 6 5 7 8 8 10 11 11 12 12 12 11 12 12 12 12 12 12 11 11 11 13 12 12 12 12 13 11 11 12 11
6 5 4 2 2 3 5 3 3 5 6 5 6 6 7 10 9 9 10 10 11 11 11 12 11 12 12 12 12 12 12 12 12 12 13 12 12 13 12 12 12 11 10 9
4 7 5 3 1 4 3 3 3 3 7 5 6 8 8 8 8 7 9 7 9 11 11 11 12 13 12 13 13 12 13 12 13 13 13 13 12 12 12 12 12 11 9 10
7 6 6 4 1 4 5 2 1 1 6 5 5 8 8 6 7 8 7 8 10 11 10 11 12 13 13 14 13 13 14 14 14 14 14 13 12 12 12 12 11 9 9 10
4 5 4 3 3 7 5 1 2 1 6 3 5 7 7 6 8 9 11 10 9 11 13 13 13 13 14 14 13 14 15 15 15 14 14 14 12 12 13 12 10 10 9 9
5 4 3 4 1 6 3 4 5 8 4 3 5 6 7 9 10 10 10 10 11 12 13 13 13 14 14 14 14 15 16 15 15 15 15 14 12 13 12 10 9 9 9 9
6 7 6 7 7 6 5 7 5 5 4 5 5 7 7 8 8 9 8 10 11 13 13 13 14 16 15 14 14 16 17 15 15 15 14 13 13 11 10 10 10 8 8 8
2 4 4 3 7 6 5 4 3 4 5 5 5 7 6 7 9 10 10 10 11 12 14 13 15 16 17 16 15 15 16 15 15 14 13 12 11 10 9 8 7 7 7 8
6 6 4 4 6 4 6 7 5 4 3 4 4 4 5 7 9 9 9 11 12 13 12 13 15 17 18 18 17 16 16 14 14 14 12 11 10 9 8 7 6 7 7 7
6 8 8 7 8 7 6 5 5 4 4 4 4 5 6 6 8 9 10 10 12 14 14 15 16 17 18 18 17 16 15 14 14 12 11 8 8 7 6 6 6 8 9 10
Wind_Direction
42 63 261 244 212 217 236 263 308 315 109 74 75 62 35 27 45 53 54 56 58 57 52 44 40 41 45 42 41 40 11 5 20 11 346 334 249 250 252 242 228 222 218 210
23 298 254 249 215 191 198 196 204 75 97 103 93 69 47 38 44 46 50 52 53 48 41 40 42 40 37 35 30 38 22 16 11 354 13 259 258 257 247 246 234 227 218 213
222 258 289 318 355 157 194 187 202 173 108 89 111 57 32 37 44 48 47 47 46 46 40 29 31 34 35 39 32 34 34 27 15 5 15 352 6 344 297 276 263 257 239 224
269 279 328 350 289 165 256 241 186 160 131 71 95 129 318 13 28 33 33 32 29 28 35 34 31 30 30 38 47 46 41 41 29 27 39 43 34 359 324 315 322 323 323 301
294 311 332 327 295 210 208 58 81 90 114 77 32 106 268 213 9 13 23 29 23 18 26 32 25 21 23 34 53 56 58 51 43 50 54 58 51 27 351 3 4 358 358 9
274 301 271 272 325 33 114 74 56 51 68 54 335 120 260 226 199 190 200 172 6 346 343 351 346 347 2 9 26 41 62 54 47 62 66 74 71 49 39 24 12 1 354 3
338 338 331 321 3 17 63 74 26 3 8 267 295 180 244 214 162 177 194 202 238 270 280 282 285 295 291 285 278 315 80 65 35 72 85 100 109 95 80 40 4 355 346 338
353 320 325 350 8 304 67 120 147 210 237 278 334 259 261 155 140 141 155 188 226 256 264 266 266 265 264 264 262 258 244 239 242 225 219 212 185 171 189 208 226 261 268 277
216 280 317 1 4 92 91 75 137 130 119 329 297 301 321 134 184 195 199 217 245 258 264 265 264 262 262 263 262 258 255 256 251 243 239 242 234 223 225 230 232 242 254 265
173 274 317 328 36 35 84 132 88 100 127 295 307 306 291 278 255 237 228 236 252 262 269 272 270 267 268 267 269 269 258 255 256 252 246 244 239 236 233 231 237 241 245 248
112 120 328 18 37 358 20 52 85 96 131 151 285 289 305 286 272 229 236 251 262 268 271 274 276 277 277 275 269 266 265 264 264 259 254 254 253 248 245 242 243 240 242 242
100 104 357 316 316 349 65 62 127 121 159 149 190 272 337 355 27 105 284 299 298 291 286 284 281 282 281 278 275 268 264 261 261 261 261 257 257 253 248 246 247 241 240 240
117 86 34 354 350 9 36 33 83 105 103 119 183 279 357 28 29 9 328 309 304 300 296 295 292 290 284 280 278 273 267 262 262 260 258 260 259 255 250 248 247 240 237 240
104 85 133 195 257 302 22 21 59 87 89 273 245 269 313 345 336 318 307 297 296 292 293 294 292 289 286 284 281 279 277 272 269 265 261 260 259 256 253 251 247 243 238 236
88 92 89 7 342 105 78 53 59 82 148 209 263 260 267 277 283 285 288 293 298 296 294 291 287 286 286 287 285 282 279 279 276 273 269 264 262 259 257 255 252 247 241 239
71 110 87 32 45 76 70 38 53 53 300 257 266 268 251 277 287 287 288 290 292 292 292 289 288 288 287 286 285 285 282 280 279 275 273 272 270 266 261 256 253 250 246 242
85 117 114 218 284 9 296 254 242 254 243 234 247 259 289 296 289 282 285 289 290 290 290 290 291 288 287 287 286 284 282 281 280 277 276 273 270 268 265 263 257 250 248 242
125 105 114 119 77 260 251 237 213 236 253 229 241 266 277 270 277 277 277 281 286 290 292 294 293 292 290 289 289 286 287 283 281 280 278 275 271 268 267 262 256 250 247 243
126 128 113 113 209 285 269 224 199 242 276 223 238 270 281 294 315 293 278 279 281 288 291 291 292 294 293 294 293 293 293 289 286 284 281 278 273 270 266 261 257 252 247 246
60 83 107 117 170 256 253 241 214 151 288 236 236 271 286 318 318 291 291 304 301 299 299 299 299 300 300 299 298 298 296 294 292 290 286 281 274 269 266 260 257 254 248 247
41 47 93 141 226 266 252 258 72 235 269 247 242 266 279 264 251 275 299 302 296 297 299 300 302 304 302 302 302 300 299 296 295 294 290 284 277 272 267 261 254 250 248 247
168 149 165 145 201 273 216 146 185 224 247 256 262 268 271 269 276 289 298 299 304 304 304 305 307 306 305 304 304 303 300 299 298 296 292 288 282 278 277 262 253 246 243 243
186 187 185 185 212 240 224 210 215 185 222 253 258 273 279 283 289 297 296 298 301 303 306 308 309 310 310 309 308 306 305 305 304 301 297 292 289 282 273 264 257 249 240 239
227 139 140 230 259 243 232 231 229 207 225 253 265 279 284 287 292 296 296 300 305 306 311 312 314 316 317 317 314 309 309 309 307 304 302 296 291 287 276 264 255 246 239 235
220 165 173 240 267 270 255 232 228 233 249 274 289 285 286 288 291 292 299 305 309 312 313 314 317 319 319 319 317 316 315 314 310 306 302 299 291 287 283 269 254 247 239 228
197 176 175 217 217 196 235 228 201 213 245 268 285 297 298 289 287 297 303 304 308 314 317 320 321 321 320 320 319 319 319 317 313 310 307 302 298 293 285 277 272 249 241 235
Height
1488 1493 1497 1494 1492 1492 1493 1497 1500 1495 1493 1498 1504 1506 1504 1501 1496 1495 1495 1495 1495 1495 1496 1496 1496 1496 1496 1497 1497 1496 1497 1494 1493 1492 1491 1490 1490 1492 1495 1497 1499 1501 1503 1505
1493 1495 1486 1484 1485 1489 1493 1497 1498 1495 1494 1499 1506 1508 1506 1504 1502 1501 1500 1499 1499 1498 1497 1497 1497 1496 1497 1497 1497 1495 1494 1491 1490 1490 1489 1490 1490 1492 1494 1495 1497 1498 1500 1501
1493 1488 1481 1482 1485 1488 1490 1493 1493 1495 1496 1499 1503 1511 1510 1507 1506 1505 1503 1502 1501 1501 1500 1499 1498 1498 1498 1497 1497 1495 1494 1493 1492 1490 1490 1490 1490 1491 1492 1493 1493 1495 1497 1498
1489 1484 1482 1483 1484 1484 1491 1483 1485 1489 1499 1509 1506 1521 1513 1510 1509 1508 1507 1505 1504 1504 1502 1502 1501 1500 1499 1498 1497 1497 1496 1495 1493 1491 1490 1490 1489 1489 1490 1489 1490 1492 1493 1494
1490 1484 1484 1485 1482 1480 1484 1483 1486 1491 1499 1511 1512 1519 1518 1511 1512 1511 1510 1508 1507 1507 1505 1504 1503 1502 1501 1499 1498 1498 1497 1495 1494 1492 1492 1490 1489 1488 1488 1488 1488 1489 1489 1490
1487 1483 1482 1482 1479 1479 1481 1487 1494 1502 1508 1520 1517 1519 1519 1513 1511 1511 1510 1509 1508 1508 1507 1506 1505 1503 1502 1501 1499 1498 1497 1495 1493 1492 1491 1490 1489 1487 1486 1485 1485 1485 1485 1486
1493 1486 1482 1480 1482 1482 1485 1500 1518 1520 1529 1525 1516 1518 1517 1508 1507 1508 1509 1509 1509 1509 1508 1507 1506 1504 1503 1501 1499 1498 1496 1494 1493 1491 1489 1488 1486 1485 1483 1482 1482 1481 1481 1481
1505 1504 1487 1482 1484 1487 1490 1499 1520 1529 1531 1526 1518 1519 1513 1506 1507 1507 1508 1509 1509 1509 1508 1507 1506 1504 1502 1500 1499 1497 1495 1493 1491 1490 1488 1486 1484 1482 1481 1479 1478 1477 1476 1476
1504 1503 1486 1483 1483 1484 1492 1502 1504 1520 1523 1528 1523 1516 1509 1507 1507 1508 1508 1509 1509 1508 1508 1506 1504 1503 1501 1499 1497 1495 1493 1491 1489 1487 1485 1483 1481 1480 1478 1476 1475 1473 1472 1471
1495 1502 1492 1487 1485 1488 1491 1500 1512 1521 1529 1531 1523 1520 1518 1509 1508 1507 1507 1507 1507 1507 1506 1504 1503 1501 1498 1496 1494 1492 1490 1488 1486 1483 1481 1479 1478 1476 1474 1472 1471 1470 1469 1467
1494 1504 1501 1495 1498 1500 1498 1502 1513 1523 1523 1531 1532 1526 1511 1509 1507 1507 1506 1506 1506 1505 1504 1502 1500 1498 1495 1493 1491 1488 1486 1483 1481 1479 1477 1474 1472 1471 1469 1468 1466 1465 1464 1463
1497 1506 1512 1504 1497 1496 1497 1503 1510 1519 1524 1528 1532 1529 1510 1508 1507 1506 1506 1506 1505 1503 1501 1499 1496 1494 1491 1489 1486 1484 1481 1478 1476 1474 1471 1469 1467 1465 1463 1461 1460 1459 1458 1458
1497 1508 1521 1518 1513 1504 1504 1505 1510 1517 1525 1530 1532 1525 1510 1509 1508 1507 1506 1505 1503 1501 1498 1496 1493 1490 1487 1484 1481 1478 1476 1473 1470 1467 1464 1462 1459 1457 1455 1454 1453 1452 1451 1451
1494 1510 1519 1524 1518 1510 1510 1509 1509 1516 1526 1527 1523 1518 1512 1510 1508 1506 1505 1503 1501 1498 1495 1492 1489 1486 1483 1480 1476 1473 1469 1466 1463 1460 1456 1453 1451 1449 1447 1446 1445 1444 1443 1443
1496 1510 1511 1511 1508 1508 1510 1511 1511 1514 1516 1522 1518 1515 1511 1509 1507 1505 1503 1501 1498 1495 1492 1489 1485 1481 1478 1474 1470 1466 1462 1459 1455 1451 1448 1445 1442 1440 1438 1437 1436 1435 1434 1434
1500 1509 1511 1513 1511 1510 1514 1513 1512 1513 1514 1515 1515 1514 1508 1507 1505 1503 1501 1498 1494 1491 1488 1484 1480 1476 1471 1467 1462 1458 1454 1450 1446 1442 1438 1435 1433 1430 1428 1427 1426 1425 1425 1425
1505 1510 1518 1521 1515 1515 1520 1515 1513 1513 1512 1513 1516 1512 1506 1505 1503 1501 1497 1494 1491 1487 1483 1479 1474 1470 1465 1460 1455 1450 1445 1441 1437 1433 1429 1426 1423 1421 1419 1418 1416 1416 1416 1416
1505 1513 1522 1524 1522 1526 1519 1509 1509 1510 1509 1508 1508 1507 1505 1503 1500 1497 1494 1491 1487 1483 1478 1473 1468 1462 1457 1452 1447 1441 1436 1432 1427 1423 1419 1416 1413 1411 1409 1407 1406 1406 1407 1407
1499 1509 1520 1527 1526 1521 1514 1508 1508 1511 1510 1506 1506 1504 1502 1500 1496 1492 1491 1487 1483 1478 1473 1467 1462 1456 1450 1444 1439 1433 1427 1422 1418 1413 1409 1406 1403 1400 1398 1397 1396 1396 1396 1397
1503 1506 1517 1525 1523 1526 1514 1506 1505 1509 1511 1504 1503 1502 1500 1498 1498 1490 1486 1482 1478 1473 1468 1461 1455 1449 1443 1437 1431 1424 1418 1413 1408 1404 1400 1396 1393 1390 1388 1387 1386 1386 1387 1387
1509 1514 1520 1523 1523 1518 1507 1504 1506 1515 1511 1502 1500 1499 1497 1495 1493 1487 1482 1478 1473 1468 1462 1456 1449 1442 1436 1429 1423 1417 1411 1405 1400 1395 1391 1387 1383 1381 1378 1377 1376 1377 1377 1378
1510 1516 1520 1525 1524 1519 1502 1503 1506 1505 1499 1499 1497 1496 1494 1491 1487 1483 1478 1473 1468 1462 1455 1449 1442 1435 1429 1423 1416 1409 1403 1397 1392 1386 1382 1378 1374 1371 1369 1368 1367 1368 1368 1369
1507 1507 1510 1513 1512 1501 1499 1499 1498 1498 1497 1496 1495 1493 1490 1487 1483 1478 1474 1468 1463 1456 1450 1443 1436 1428 1422 1416 1410 1402 1395 1390 1384 1379 1374 1370 1366 1363 1361 1360 1359 1359 1360 1361
1501 1501 1504 1505 1500 1497 1496 1496 1496 1496 1495 1494 1492 1490 1487 1483 1479 1475 1470 1464 1458 1451 1444 1437 1430 1422 1415 1409 1403 1397 1390 1383 1377 1372 1367 1363 1359 1356 1354 1353 1352 1352 1353 1354
1496 1499 1501 1501 1496 1494 1493 1493 1493 1493 1492 1491 1489 1487 1484 1480 1476 1471 1465 1459 1453 1446 1439 1432 1425 1418 1410 1404 1397 1391 1384 1378 1372 1366 1361 1357 1354 1351 1349 1347 1347 1346 1347 1348
1491 1493 1497 1496 1490 1491 1490 1490 1490 1490 1489 1488 1486 1483 1481 1477 1472 1467 1461 1455 1449 1442 1434 1427 1420 1414 1406 1399 1392 1386 1380 1373 1367 1361 1356 1352 1349 1346 1344 1343 1342 1342 1342 1343